AO-07 1 07530U 74089B 20198.38798810 -.00000037 00000-0 51953-4 0 9995 2 07530 101.8012 167.9693 0011953 310.2360 204.6161 12.53644215089612 UO-11 1 14781U 84021B 20198.77131597 .00000030 00000-0 97452-5 0 9991 2 14781 97.5893 209.2869 0010012 102.8195 257.4139 14.83178196957178 LO-19 1 20442U 90005G 20198.55979584 -.00000022 00000-0 81992-5 0 9997 2 20442 098.6935 145.9099 0012905 070.9925 289.2656 14.32956498592724 HUBBLE 1 20580U 90037B 20198.53282903 .00000321 00000-0 85126-5 0 9999 2 20580 028.4693 127.3278 0002800 049.0674 113.8123 15.09406115460369 MET-2/21 1 22782U 93055A 20198.46317016 .00000043 00000-0 25431-4 0 9997 2 22782 082.5476 210.5610 0023106 150.7314 003.3995 13.83826448357059 AO-27 1 22825U 93061C 20198.75817794 -.00000008 00000-0 15024-4 0 9991 2 22825 98.9232 201.9482 0007410 295.4560 64.5854 14.30088654398273 IO-26 1 22826U 93061D 20198.73772427 -.00000006 00000-0 15506-4 0 9996 2 22826 98.9172 201.8711 0007851 281.8083 78.2218 14.30424578398487 FO-29 1 24278U 96046B 20198.74477235 -.00000050 00000-0 -11148-4 0 9993 2 24278 98.5862 304.7440 0349438 299.1027 57.5545 13.53098045181094 NOAA-15 1 25338U 98030A 20198.69388264 .00000062 00000-0 44444-4 0 9999 2 25338 98.7151 223.5937 0010577 171.4666 188.6695 14.25979292153390 GO-32 1 25397U 98043D 20198.33028604 -.00000025 00000-0 83407-5 0 9991 2 25397 98.7293 139.6102 0001391 27.1237 333.0014 14.23687530143881 ISS 1 25544U 98067A 20198.82922586 -.00000294 00000-0 27925-5 0 9998 2 25544 51.6427 201.7586 0001353 122.6268 297.1450 15.49512454236611 NO-44 1 26931U 01043C 20198.60242125 -.00000050 00000-0 12686-4 0 9994 2 26931 067.0516 067.1742 0005872 273.7849 086.2581 14.30582115981241 SO-50 1 27607U 02058C 20198.50934810 -.00000054 00000-0 12797-4 0 9997 2 27607 064.5558 285.5326 0044318 168.4644 191.7485 14.75646263945019 CO-55 1 27844U 03031E 20198.76869562 .00000029 00000-0 32632-4 0 9992 2 27844 98.6809 206.0603 0009340 337.8556 22.2217 14.22246682884303 CO-57 1 27848U 03031J 20198.45202057 .00000028 00000-0 32366-4 0 9995 2 27848 098.6877 206.3078 0009508 351.5943 008.5074 14.21832538884061 RS-22 1 27939U 03042A 20198.85442157 .00000039 00000-0 15688-4 0 9999 2 27939 98.0949 333.2903 0011623 259.0242 100.9664 14.66872140898326 NOAA-18 1 28654U 05018A 20198.70108831 .00000046 00000-0 49328-4 0 9997 2 28654 99.0417 255.4006 0014986 145.6987 214.5155 14.12525306781139 CO-58 1 28895U 05043F 20198.60256975 .00000073 00000-0 22873-4 0 9990 2 28895 098.0135 334.1476 0016757 184.1600 175.9466 14.63783058784871 Falconsat-3 1 30776U 07006E 20198.76648524 .00001789 00000-0 48284-4 0 9993 2 30776 35.4347 92.4551 0001437 88.6597 271.4295 15.37908541741358 CO-65 1 32785U 08021C 20198.43982242 .00000138 00000-0 20416-4 0 9999 2 32785 097.5737 185.1830 0014122 042.5186 317.7122 14.88487916662189 AAUSAT2 1 32788U 08021F 20198.43224939 .00000639 00000-0 63200-4 0 9998 2 32788 097.4909 201.6428 0010630 326.0407 034.0133 14.95092465663647 DO-64 1 32789U 08021G 20198.40249167 .00001147 00000-0 78831-4 0 9997 2 32789 97.4162 240.1901 0011197 209.3232 150.7369 15.07791515666276 CO-66 1 32791U 08021J 20198.72614219 .00000324 00000-0 37986-4 0 9991 2 32791 97.5411 191.5848 0013606 12.1879 347.9667 14.91072102662824 RS-30 1 32953U 08025A 20198.69288102 .00000037 00000-0 19437-3 0 9990 2 32953 82.5009 259.7162 0018704 353.5440 6.5396 12.43097121551262 PRISM 1 33493U 09002B 20198.79637034 .00000786 00000-0 73659-4 0 9997 2 33493 98.1459 140.3076 0013991 324.5718 35.4571 14.97075920624106 NOAA-19 1 33591U 09005A 20198.77782483 .00000058 00000-0 56603-4 0 9998 2 33591 99.1948 204.8880 0013909 358.2192 1.8927 14.12421599589530 TISAT-1 1 36799U 10035E 20198.75662733 .00000401 00000-0 46342-4 0 9990 2 36799 98.1964 10.1588 0011160 229.9089 130.1151 14.91381476543495 JUGNU 1 37839U 11058B 20198.47327192 .00000272 00000-0 31879-5 0 9994 2 37839 019.9612 106.7744 0018797 348.4702 169.2980 14.12683497452897 SRMSAT 1 37841U 11058D 20198.59295612 .00000300 00000-0 19281-4 0 9995 2 37841 019.9706 170.9824 0011802 203.0802 313.9537 14.10663373452281 AO-71 1 37854U 11061E 20198.50513248 .00000465 00000-0 31473-4 0 9991 2 37854 101.7019 304.7421 0158014 335.4160 023.9577 15.07343698475858 HRBE 1 37855U 11061F 20198.53624503 .00000266 00000-0 21314-4 0 9994 2 37855 101.7147 301.9336 0170658 348.6445 011.0937 15.06371139475583 HORYU-2 1 38340U 12025D 20198.56654638 .00000098 00000-0 22276-4 0 9991 2 38340 098.2787 252.8044 0010350 312.8506 047.1833 14.75867773428847 RS-40 1 38735U 12041C 20198.43630473 .00000001 00000-0 -63372-4 0 9991 2 38735 082.4761 342.5892 0017719 097.6566 262.6526 12.42579924361456 BEESAT-3 1 39135U 13015F 20198.48890927 .00000439 00000-0 30978-4 0 9995 2 39135 064.8659 207.6372 0035208 240.0611 119.7018 15.18230372399628 BEESAT-2 1 39136U 13015G 20198.74594784 .00000574 00000-0 38059-4 0 9995 2 39136 64.8695 211.8785 0032468 276.5950 83.1480 15.17616349399953 ZACUBE-1 1 39417U 13066B 20198.41174078 .00000120 00000-0 21366-4 0 9997 2 39417 097.5650 194.8246 0058740 181.3849 178.7211 14.81290862359320 TRITON-1 1 39427U 13066M 20198.65091219 .00000162 00000-0 33940-4 0 9996 2 39427 97.7276 157.9602 0113355 345.4962 14.2998 14.68019834356131 GOMX-1 1 39430U 13066Q 20198.80731157 .00000105 00000-0 27607-4 0 9999 2 39430 97.7923 135.5641 0152339 92.0095 269.8566 14.59411423354087 LO-74 1 39440U 13066AA 20198.77525842 .00000119 00000-0 23699-4 0 9990 2 39440 97.6321 179.6593 0078609 244.5991 114.7068 14.76027152358103 AO-73 1 39444U 13066AE 20198.39283383 .00000172 00000-0 27337-4 0 9995 2 39444 097.5591 197.0533 0058064 173.4825 186.7157 14.82146970357656 SPROUT 1 39770U 14029E 20198.73976896 .00000379 00000-0 47607-4 0 9994 2 39770 97.8996 304.8972 0007744 226.1158 133.9441 14.87791834333417 DUCHIFAT-1 1 40021U 14033M 20198.47402979 .00000195 00000-0 25651-4 0 9998 2 40021 097.9429 129.8895 0012452 185.1488 174.9604 14.90928906330218 NANOSATCBR1 1 40024U 14033Q 20198.51313856 .00000098 00000-0 16073-4 0 9991 2 40024 097.9273 126.2153 0011698 189.5119 170.5879 14.90095094329561 DTUSAT-2 1 40030U 14033W 20198.52121402 .00000135 00000-0 20455-4 0 9994 2 40030 097.9026 120.2318 0011317 193.0333 167.0593 14.88730744329331 EO-80 1 40032U 14033Y 20198.27223747 .00000153 00000-0 22362-4 0 9992 2 40032 097.9032 119.9859 0011239 194.8239 165.2650 14.88679865329275 ANTELSAT 1 40034U 14033AA 20198.38270356 .00000139 00000-0 27962-4 0 9999 2 40034 097.7119 052.6860 0057070 265.2909 094.1781 14.74271920326149 VELOX-1 1 40057U 14034E 20198.68162665 .00000139 00000-0 27061-4 0 9991 2 40057 98.2848 336.4540 0011889 57.0876 303.1478 14.77891208325959 DAURIA DX 1 1 40071U 14037C 20198.76407007 .00000035 00000-0 11995-4 0 9995 2 40071 98.4620 18.7875 0009344 49.0018 311.2006 14.81375322325594 HODOYOSHI-1 1 40299U 14070B 20198.80615219 .00000383 00000-0 18618-4 0 9990 2 40299 97.3211 274.8612 0014734 92.0925 4.6597 15.24101196316286 CHUBUSAT-1 1 40300U 14070C 20198.66910543 .00000451 00000-0 22266-4 0 9995 2 40300 97.2857 266.9559 0021242 108.8242 43.4837 15.22545344315952 QSAT-EOS 1 40301U 14070D 20198.81642024 .00001218 00000-0 48199-4 0 9994 2 40301 97.2916 272.5877 0026805 85.5508 23.6852 15.27030589316415 FIREBIRD FU3 1 40377U 15003B 20198.42308347 .00001194 00000-0 49641-4 0 9994 2 40377 099.0932 264.5550 0122917 216.9237 142.3486 15.20137138301704 FIREBIRD FU4 1 40378U 15003C 20198.20956324 .00001196 00000-0 49672-4 0 9991 2 40378 99.0935 264.3984 0123101 217.5049 141.7547 15.20152404301682 GRIFEX 1 40379U 15003D 20198.44700697 .00000600 00000-0 29605-4 0 9991 2 40379 99.1002 256.4338 0131665 242.4747 116.3051 15.16470693301248 NO-84 1 40654U 15025D 20197.40755303 .00005632 00000-0 70010-4 0 9840 2 40654 54.9854 171.7503 0111369 260.4789 98.3709 15.54733241173379 DEORBITSAIL 1 40719U 15032E 20198.63166402 .00000250 00000-0 42451-4 0 9997 2 40719 97.8671 86.5508 0017661 111.0237 249.2864 14.77025601270400 NUDT-PHONESAT 1 40900U 15049B 20198.73885877 .00001324 00000-0 57220-4 0 9995 2 40900 97.4298 209.4385 0010941 237.1036 233.3403 15.24203959267656 XW-2A 1 40903U 15049E 20198.75439192 .00001449 00000-0 34533-4 0 9995 2 40903 97.2861 247.7259 0014056 150.1835 319.7952 15.43178870270993 XW-2C 1 40906U 15049H 20198.82110016 .00000349 00000-0 21549-4 0 9998 2 40906 97.4773 199.7368 0012997 272.8509 210.6075 15.16104356266706 XW-2D 1 40907U 15049J 20198.87513985 .00000557 00000-0 32161-4 0 9999 2 40907 97.4755 199.5010 0012367 270.2611 206.9713 15.16342743266730 LILACSAT-2 1 40908U 15049K 20198.78459397 .00000322 00000-0 21304-4 0 9993 2 40908 97.4917 197.7237 0014229 282.1605 158.5111 15.14062358266436 XW-2E 1 40909U 15049L 20198.87390228 .00000740 00000-0 39164-4 0 9998 2 40909 97.4637 203.0276 0011725 259.1222 218.4710 15.18482892266992 XW-2F 1 40910U 15049M 20198.76246184 .00000491 00000-0 27451-4 0 9998 2 40910 97.4681 202.0092 0012841 257.6544 189.4821 15.17990051266785 XW-2B 1 40911U 15049N 20198.79584580 .00000506 00000-0 29591-4 0 9991 2 40911 97.4767 200.1203 0012309 271.4629 212.9156 15.16267539266613 DCBB 1 40912U 15049P 20198.79243672 .00000597 00000-0 30530-4 0 9991 2 40912 97.4484 206.2168 0013332 231.5130 303.0790 15.20389825267174 TW-1C 1 40926U 15051B 20198.69872979 .00020623 00000-0 19595-3 0 9995 2 40926 97.0818 250.6825 0004542 356.1034 102.6016 15.66884856271600 TW-1A 1 40928U 15051D 20198.78928446 .00002264 00000-0 53583-4 0 9995 2 40928 97.1079 225.9047 0012396 82.8418 27.1689 15.42743960269897 IO-86 1 40931U 15052B 20198.45964230 .00000594 00000-0 -64045-5 0 9996 2 40931 005.9988 128.5111 0013574 328.0084 031.9103 14.76637625259552 LQSat 1 40958U 15057A 20198.46142225 -.00000021 00000-0 43317-5 0 9997 2 40958 97.8509 260.8886 0019351 59.4598 300.8517 14.73124388256775 ATHENOXAT-1 1 41168U 15077C 20198.67755366 .00001381 00000-0 36295-4 0 9997 2 41168 14.9869 206.9917 0011323 174.9468 185.0968 15.14424535253788 ChubuSat-2 1 41338U 16012B 20198.57607459 .00000234 00000-0 11453-4 0 9999 2 41338 031.0023 161.2987 0013653 045.2588 314.9156 15.00305634242110 ChubuSat-3 1 41339U 16012C 20198.56753794 .00000221 00000-0 10414-4 0 9995 2 41339 31.0117 158.9557 0013450 52.0673 308.1178 15.00469243242113 Horyu-4 1 41340U 16012D 20198.15077014 .00000355 00000-0 20121-4 0 9990 2 41340 031.0043 149.0289 0013818 074.0662 286.1495 15.01518008242196 OUFTI-1 1 41458U 16025C 20198.43494335 .00001212 00000-0 63668-4 0 9990 2 41458 098.1078 310.5477 0164702 111.9901 249.8916 15.06948369231844 e-st@r-II 1 41459U 16025D 20198.75470842 .00001164 00000-0 61737-4 0 9994 2 41459 98.1069 310.2756 0166360 112.9674 248.9202 15.06503247231853 AAUSAT4 1 41460U 16025E 20198.71416489 .00002665 00000-0 13189-3 0 9993 2 41460 98.1061 312.6662 0154792 101.7187 260.1475 15.08853274232051 LO-87 1 41557U 16033B 20198.71638563 .00000761 00000-0 30483-4 0 9990 2 41557 97.4041 288.7512 0013090 351.7869 8.3154 15.28076247230248 NuSat2 1 41558U 16033C 20198.70917155 .00000820 00000-0 30766-4 0 9997 2 41558 97.4098 291.1563 0012025 349.2214 10.8767 15.30067972230367 Lapan A3 1 41603U 16040E 20198.77361650 -.00000064 00000-0 13332-6 0 9999 2 41603 97.3069 251.3968 0015034 98.4946 11.5207 15.19848691225598 Swayam 1 41607U 16040J 20198.41365975 .00001058 00000-0 46043-4 0 9994 2 41607 097.3157 257.0992 0014878 085.9518 274.3420 15.24307310225838 Pratham 1 41783U 16059A 20198.60684631 .00000022 00000-0 13505-4 0 9990 2 41783 98.0143 253.2440 0032627 222.6337 137.2333 14.63063857203140 AlSat 1N 1 41789U 16059G 20198.73581571 .00000042 00000-0 16868-4 0 9996 2 41789 98.0181 256.2556 0027616 208.9596 151.0070 14.64329691203318 ScatSat 1 41790U 16059H 20198.70618186 -.00000011 00000-0 80738-5 0 9993 2 41790 98.1587 238.1196 0005324 178.8983 181.2220 14.50922584201468 TY-1 1 41844U 16066D 20198.83845086 .00000528 00000-0 24085-4 0 9990 2 41844 97.4030 206.6777 0013368 237.1129 245.1688 15.24891014204743 Pegasus-1 1 41846U 16066F 20198.58801326 .00000194 00000-0 38941-4 0 9998 2 41846 98.6594 248.9467 0367646 146.3070 216.2087 14.37786479193150 CAS-2T 1 41847U 16066G 20198.43011396 .00000057 00000-0 18365-4 0 9999 2 41847 098.6518 249.2363 0366464 142.4585 220.2807 14.38077759193588 EO-88 1 42017U 17008BX 20198.45672414 .00001020 00000-0 41767-4 0 9995 2 42017 097.3584 265.5949 0005327 204.5061 155.5925 15.26562977189973 CAS-4B 1 42759U 17034B 20198.80767237 -.00000000 00000-0 13436-4 0 9994 2 42759 43.0186 225.7736 0011271 223.6946 305.3984 15.09843413170409 CAS-4A 1 42761U 17034D 20198.81657037 .00000053 00000-0 16654-4 0 9996 2 42761 43.0188 225.0060 0011632 224.7802 304.1614 15.09922609170403 UCLSat 1 42765U 17036A 20198.25257611 .00000750 00000-0 34225-4 0 9992 2 42765 097.2988 251.7186 0009509 287.5025 072.5173 15.23577597170960 NIUSat 1 42766U 17036B 20198.40157274 .00000553 00000-0 27352-4 0 9998 2 42766 97.2982 249.2554 0013641 279.4126 80.5568 15.21761921170095 LituanicaSAT 2 1 42768U 17036D 20198.54725885 .00001318 00000-0 56961-4 0 9992 2 42768 097.3045 252.0236 0012767 273.5518 086.4259 15.24161556170278 Aalto 1 1 42775U 17036L 20198.38314407 .00000485 00000-0 24277-4 0 9995 2 42775 097.2962 249.5810 0012062 279.0509 080.9362 15.21876615170079 URSA MAIOR 1 42776U 17036M 20198.36894683 .00000534 00000-0 26306-4 0 9993 2 42776 097.2974 249.8642 0011877 278.7415 081.2476 15.22062622170081 Max Valier Sat 1 42778U 17036P 20198.45512333 .00000578 00000-0 27753-4 0 9999 2 42778 097.3029 251.2864 0010388 281.8958 078.1114 15.22661724170140 Pegasus 1 42784U 17036V 20198.41514494 .00000728 00000-0 33583-4 0 9997 2 42784 097.2992 251.5546 0010112 287.7287 072.2846 15.23265686170189 NUDATSat 1 42787U 17036Y 20198.57827654 .00001110 00000-0 47800-4 0 9995 2 42787 097.3039 253.1760 0010594 289.2976 070.7117 15.24599730170137 SUCHAI 1 1 42788U 17036Z 20198.42884757 .00000872 00000-0 39061-4 0 9991 2 42788 097.3001 252.1833 0009618 285.7434 074.2743 15.23824991170292 SKCUBE 1 42789U 17036AA 20198.21527621 .00000814 00000-0 36809-4 0 9996 2 42789 097.2995 251.8191 0009526 287.0025 073.0168 15.23662626170176 VZLUSAT 1 1 42790U 17036AB 20198.43627123 .00001125 00000-0 48474-4 0 9997 2 42790 097.3021 253.0330 0008966 283.1896 076.8342 15.24584697170265 VENTA 1 1 42791U 17036AC 20198.45236905 .00000742 00000-0 33821-4 0 9998 2 42791 097.2993 252.0907 0009184 286.8232 073.1998 15.23644007170201 Robusta 1B 1 42792U 17036AD 20198.42816841 .00000883 00000-0 39481-4 0 9993 2 42792 97.2998 252.2866 0009091 286.6736 73.3503 15.23854065170231 D-SAT 1 42794U 17036AF 20198.36114626 .00000239 00000-0 26281-4 0 9999 2 42794 097.4917 229.5844 0124512 268.5229 090.1724 14.91291583167008 TechnoSat 1 42829U 17042E 20198.47411870 .00000162 00000-0 21606-4 0 9999 2 42829 97.5166 78.8861 0013991 181.8587 178.2582 14.91111031163612 QIKCOM-1 1 42983U 98067NF 20198.74399597 .00002800 00000-0 37760-4 0 9996 2 42983 51.6374 157.8280 0003738 156.3364 203.7802 15.61745798154863 AO-91 1 43017U 17073E 20198.54902017 .00000335 00000-0 32010-4 0 9992 2 43017 097.7215 109.6621 0255870 315.8480 042.2557 14.78970713143469 EcAMSat 1 43019U 98067NG 20198.72687661 .00006086 00000-0 62196-4 0 9998 2 43019 51.6396 142.7972 0003841 144.1671 215.9583 15.66610548237389 PICSAT 1 43132U 18004X 20198.65535234 .00000826 00000-0 36531-4 0 9997 2 43132 97.4460 269.8167 0008257 318.6902 41.3710 15.24474487139505 AO-92 1 43137U 18004AC 20198.43686949 .00000617 00000-0 28298-4 0 9997 2 43137 097.4446 269.4007 0007962 322.5415 037.5266 15.24167791139463 TianYi 2 1 43155U 18008A 20198.80562794 .00000758 00000-0 48115-4 0 9999 2 43155 97.4451 267.1472 0018796 50.6694 58.8475 15.11670009137356 Zhou Enlai 1 43156U 18008B 20198.77593022 .00000412 00000-0 28243-4 0 9991 2 43156 97.4502 266.9652 0016002 50.5227 44.7848 15.11215720137308 TianYi 6 1 43158U 18008D 20198.68067044 .00000763 00000-0 49674-4 0 9993 2 43158 97.4428 265.8933 0014857 48.6903 102.3676 15.10749967137238 S-Net G 1 43186U 18014G 20198.52818948 -.00000345 00000-0 -25027-4 0 9995 2 43186 097.6922 105.8944 0012020 122.8593 237.3787 14.96820422134042 S-Net H 1 43187U 18014H 20198.52801655 -.00000350 00000-0 -25493-4 0 9996 2 43187 097.6920 105.8718 0012021 122.8144 237.4237 14.96820218134047 S-Net J 1 43188U 18014J 20198.52788908 -.00000354 00000-0 -25872-4 0 9997 2 43188 097.6923 105.9024 0012022 122.8732 237.3648 14.96820142134047 S-Net K 1 43189U 18014K 20198.72887328 -.00000325 00000-0 -23328-4 0 9998 2 43189 97.6919 106.0645 0012025 122.2643 237.9745 14.96819226132629 FMN 1 1 43192U 18015A 20198.78678012 .00001274 00000-0 52773-4 0 9995 2 43192 97.4477 328.1419 0015244 352.3457 144.9983 15.25701736136377 Shaonian Xing 1 43199U 18015H 20198.84560823 .00000936 00000-0 39333-4 0 9990 2 43199 97.4258 326.3939 0016518 1.8024 149.2398 15.25837710136447 UBAKUSAT 1 43467U 98067NQ 20198.20025904 .00020630 00000-0 12940-3 0 9996 2 43467 51.6352 133.6393 0001973 113.8903 246.2304 15.76750759124641 EnduroSat One 1 43551U 98067NZ 20198.53225383 .00044783 00000-0 19562-3 0 9991 2 43551 51.6320 127.5191 0002279 161.1645 198.9443 15.84233579114985 EQUISat 1 43552U 98067PA 20198.22482197 .00021695 00000-0 14250-3 0 9992 2 43552 51.6324 140.6687 0002759 184.3136 175.7840 15.75655014114741 UiTMSat 1 1 43589U 98067PD 20198.12782685 .00034143 00000-0 19083-3 0 9997 2 43589 51.6329 138.3219 0001551 197.3697 162.7251 15.79031140110500 Maya 1 1 43590U 98067PE 20198.24730393 .00034537 00000-0 19288-3 0 9995 2 43590 51.6288 137.5991 0001739 181.5225 178.5771 15.79042368110454 Bhutan 1 1 43591U 98067PF 20198.53300460 .00030325 00000-0 16833-3 0 9990 2 43591 51.6349 135.8571 0001685 198.8077 161.2863 15.79248673110508 SiriusSat 1 1 43595U 98067PG 20198.44936109 .00027533 00000-0 17515-3 0 9994 2 43595 051.6280 141.9996 0001841 129.2795 230.8368 15.76232803109599 SiriusSat 2 1 43596U 98067PH 20198.70344436 .00025574 00000-0 16375-3 0 9996 2 43596 51.6274 141.5228 0001957 132.6376 227.4789 15.76129655109621 Tanusha-3 1 43597U 98067PJ 20198.80304288 .00088874 14061-4 28866-3 0 9995 2 43597 51.6259 124.5915 0002472 125.7313 234.3923 15.90775205109852 SurfSat 1 43614U 18070B 20198.59599183 .00001818 00000-0 46756-4 0 9993 2 43614 93.0219 166.6347 0013235 216.0768 143.9595 15.39301138102969 CP-7 DAVE 1 43615U 18070C 20198.30514653 .00001711 00000-0 44230-4 0 9999 2 43615 093.0222 166.5032 0013351 217.0792 142.9541 15.39148763102919 ELFIN-B 1 43616U 18070D 20198.51477135 .00002788 00000-0 68699-4 0 9996 2 43616 093.0177 166.5416 0013668 217.4808 142.5495 15.40550402102999 ELFIN-A 1 43617U 18070E 20198.54449248 .00002857 00000-0 69959-4 0 9991 2 43617 093.0229 167.0900 0013157 213.0394 147.0040 15.40744170103003 STARS-Me Mother 1 43640U 98067PQ 20198.26803234 .00009974 00000-0 99477-4 0 9994 2 43640 51.6333 161.9888 0004124 129.1954 230.9408 15.66359245101243 CubeBel 1 1 43666U 18083E 20198.76730267 .00000510 00000-0 28177-4 0 9998 2 43666 97.4884 224.9414 0013198 257.2616 217.2929 15.18305137 95060 Changshagaoxin 1 43669U 18083H 20198.75948417 .00000483 00000-0 27576-4 0 9999 2 43669 97.4753 223.0365 0009228 248.8145 111.2103 15.17328201 94977 Ten-Koh 1 43677U 18084G 20198.56203184 .00000026 00000-0 85667-5 0 9992 2 43677 097.8860 315.5588 0017332 065.0310 295.2706 14.90297536093271 PO-101 1 43678U 18084H 20198.72191400 .00000030 00000-0 87306-5 0 9995 2 43678 97.8878 317.1289 0011381 80.5828 279.6670 14.91639703 93386 IRVINE 01 1 43693U 18088D 20198.60027968 .00001679 00000-0 69507-4 0 9992 2 43693 085.0339 057.7177 0017498 176.5566 183.5800 15.22971334093288 QO-100 1 43700U 18090A 20198.69916035 .00000153 00000-0 00000 0 0 9999 2 43700 0.0230 42.0012 0000879 169.1168 1.3898 1.00273698 6243 Reaktor Hello World 1 43743U 18096AA 20198.45007242 .00000812 00000-0 32850-4 0 9992 2 43743 097.4201 272.1769 0018607 030.6632 329.5690 15.27464901090824 MinXSS-2 1 43758U 18099A 20198.50045267 .00000087 00000-0 12937-4 0 9994 2 43758 097.7055 269.9661 0017252 092.3799 267.9398 14.95688442088299 AO-95 1 43770U 18099N 20198.48982597 .00000429 00000-0 44371-4 0 9998 2 43770 097.7048 269.3630 0016234 099.6156 260.6899 14.95007031088252 RANGE-B 1 43772U 18099Q 20198.50634835 -.00000071 00000-0 -12646-5 0 9998 2 43772 097.7116 269.9216 0015761 088.0373 272.2653 14.95199733088251 RANGE-A 1 43773U 18099R 20198.41401997 .00000518 00000-0 52495-4 0 9999 2 43773 97.6989 268.9073 0015199 88.4783 271.8179 14.94980253 88233 MOVE-II 1 43780U 18099Y 20198.43074822 .00000307 00000-0 32914-4 0 9992 2 43780 097.7052 269.5347 0015217 097.5045 262.7906 14.95427416088243 SNUSat 2 1 43782U 18099AA 20198.64663690 -.00000255 00000-0 -17977-4 0 9990 2 43782 97.7043 269.7395 0014266 87.0189 273.2664 14.95272133 88282 SnugLite 1 43784U 18099AC 20198.47930110 .00000618 00000-0 61038-4 0 9995 2 43784 097.7009 269.3929 0016770 094.9552 265.3584 14.95371532088273 ITASat 1 1 43786U 18099AE 20198.61402616 .00000574 00000-0 57144-4 0 9992 2 43786 97.7063 269.9254 0016860 93.7102 266.6047 14.95342546 88293 EAGLET 1 1 43790U 18099AJ 20198.66551129 .00000169 00000-0 20291-4 0 9999 2 43790 97.7049 270.2439 0015010 97.6386 262.6541 14.95720089 88012 ESEO 1 43792U 18099AL 20198.47736452 .00000435 00000-0 44229-4 0 9997 2 43792 097.7024 269.8684 0014920 095.2966 264.9958 14.95606306088045 CSIM 1 43793U 18099AM 20198.51304653 -.00000132 00000-0 -65959-5 0 9997 2 43793 97.7022 269.9039 0014575 92.6796 267.6094 14.96076962 88037 Astrocast 0.1 1 43798U 18099AS 20198.51808757 -.00000302 00000-0 -21865-4 0 9992 2 43798 97.7047 270.2035 0013888 79.5068 280.7717 14.95883024 88292 JO-97 1 43803U 18099AX 20198.15673149 .00000512 00000-0 51315-4 0 9998 2 43803 97.7024 269.2878 0016867 95.1933 265.1214 14.95524002 88222 Suomi 100 1 43804U 18099AY 20198.15778242 .00000456 00000-0 46223-4 0 9998 2 43804 97.7022 269.2760 0016919 95.3030 265.0121 14.95512031 88235 Al Farabi 2 1 43805U 18099AZ 20198.73176654 .00000287 00000-0 30968-4 0 9993 2 43805 97.7025 269.9323 0016802 93.8317 266.4825 14.95632279 88326 PWSat 2 1 43814U 18099BJ 20198.70164139 .00017543 00000-0 97800-3 0 9995 2 43814 97.7917 280.0428 0009334 110.2614 249.9621 15.13617228 88140 CHOMPTT 1 43855U 18104G 20198.54364106 .00000732 00000-0 29291-4 0 9997 2 43855 085.0388 155.9668 0015630 310.4217 049.5661 15.23012647087953 ISAT 1 43879U 18111D 20198.72252355 -.00000311 00000-0 -22436-4 0 9992 2 43879 97.7005 105.6814 0013831 140.9454 219.2768 14.96259278 82850 UWE-4 1 43880U 18111E 20198.56455715 .00000775 00000-0 73125-4 0 9994 2 43880 097.7020 105.8101 0013238 141.5366 218.6802 14.96528941084849 Sparrow 1 43881U 18111F 20198.47906524 .00000292 00000-0 30706-4 0 9996 2 43881 097.7018 105.8027 0013353 141.1826 219.0357 14.96547122084830 Lume 1 1 43908U 18111AJ 20198.44330962 .00000754 00000-0 32736-4 0 9998 2 43908 97.2632 97.5221 0022528 44.1395 316.1636 15.25083402 86444 FO-98 1 43933U 19003B 20198.38135488 .00000509 00000-0 25041-4 0 9995 2 43933 097.2280 247.0099 0019091 136.0396 224.2364 15.22144949082937 FO-99 1 43937U 19003F 20198.57136029 .00000929 00000-0 40334-4 0 9990 2 43937 097.2242 248.5165 0025609 119.7563 240.6228 15.24440682083077 Delphini 1 1 44030U 98067PW 20198.29070333 .00014354 00000-0 13676-3 0 9991 2 44030 051.6325 168.1446 0002583 175.8474 184.2544 15.67079094083039 MYSat 1 1 44045U 18092F 20198.45476698 .00001260 00000-0 45252-4 0 9997 2 44045 051.6400 261.4574 0011704 069.9333 290.2909 15.36789356079741 AstroCast 0.2 1 44083U 19018F 20198.55348899 .00000438 00000-0 22442-4 0 9992 2 44083 97.4192 259.1940 0014826 72.8691 287.4167 15.21637636 71808 AISTechSat 3 1 44103U 19018AB 20198.73542934 .00000660 00000-0 30815-4 0 9991 2 44103 97.4062 259.5605 0015160 85.4699 10.0762 15.23201305 71891 AISat 1 1 44104U 19018AC 20198.45029096 .00000723 00000-0 25447-4 0 9995 2 44104 097.4625 268.3046 0059738 109.4390 251.3320 15.31098864072241 Raavana-1 1 44329U 98067QE 20198.37540512 .00007433 00000-0 10251-3 0 9998 2 44329 051.6379 189.1122 0006148 104.9753 255.1921 15.58326493061511 Uguisu 1 44330U 98067QF 20198.26126422 .00007452 00000-0 10312-3 0 9997 2 44330 051.6356 189.8389 0006145 103.6272 256.5405 15.58231557061472 NepaliSat-1 1 44331U 98067QG 20198.36746777 .00007267 00000-0 10031-3 0 9992 2 44331 51.6355 189.0504 0006150 107.2403 252.9263 15.58342745 61503 Prox-1 1 44339U 19036A 20198.66218463 .00000646 00000-0 10337-3 0 9991 2 44339 23.9999 288.0930 0011157 107.6525 252.5185 14.53037537 56385 Oculus-ASR 1 44348U 19036K 20198.34992576 .00006571 00000-0 94259-4 0 9999 2 44348 028.5168 193.7174 0365911 256.0961 099.8675 15.02799526058150 Armadillo 1 44352U 19036P 20198.31126380 .00009540 00000-0 13779-3 0 9999 2 44352 28.5320 188.9426 0353096 263.0083 93.0230 15.05654066 58149 NO-104 1 44354U 19036R 20198.26224594 .00007152 00000-0 10126-3 0 9991 2 44354 028.5311 191.3608 0362738 258.7497 097.2124 15.03826063058160 NO-103 1 44355U 19036S 20198.29740600 .00014049 00000-0 19355-3 0 9992 2 44355 028.5309 180.8961 0340258 275.7603 080.4298 15.09504800058270 CP9 1 44360U 19036X 20198.30057808 .00024650 -61110-5 27097-3 0 9997 2 44360 28.5134 164.4508 0320386 303.3891 53.6435 15.17102405 58307 Move-IIb 1 44398U 19038N 20198.53245514 .00000775 00000-0 48162-4 0 9992 2 44398 097.5376 159.3956 0026192 030.7906 329.4855 15.12369030056973 SONATE 1 44400U 19038Q 20198.70651121 .00000426 00000-0 28477-4 0 9990 2 44400 97.5415 159.5811 0026070 28.8879 331.3788 15.11977923 56999 BeeSat 9 1 44412U 19038AC 20198.11858599 .00000658 00000-0 41531-4 0 9999 2 44412 97.5401 159.0952 0023812 36.3455 323.9387 15.12334303 56603 JAISAT-1 1 44419U 19038F 20198.32815149 .00000586 00000-0 36917-4 0 9995 2 44419 97.5403 159.5885 0022625 34.9330 325.3380 15.12817920 56968 LightSail-2 1 44420U 19036AC 20198.59137691 .00003735 00000-0 78480-3 0 9992 2 44420 24.0068 283.6621 0019047 76.7903 283.4712 14.55890743 54560 Taurus 1 1 44530U 19059C 20198.80527470 -.00000635 00000-0 -16697-3 0 9991 2 44530 98.5690 280.1744 0016685 77.4399 282.8663 14.45520912 44585 MO-106 1 44830U 19084G 20198.71787357 .00052602 00000-0 25870-3 0 9996 2 44830 96.9696 68.2070 0025285 123.0246 237.3457 15.81544535 35076 TRSI-Sat 1 44831U 19084H 20198.60452342 .00048233 00000-0 24155-3 0 9998 2 44831 96.9703 68.0860 0025453 122.5107 237.8627 15.81162301 35068 MO-105 1 44832U 19084J 20198.36908101 .00070009 00000-0 31611-3 0 9992 2 44832 096.9702 068.0931 0023585 122.7468 237.6080 15.83380643035034 Duchifat 3 1 44854U 19089C 20198.60203232 .00000175 00000-0 20572-4 0 9993 2 44854 36.9689 286.0902 0009746 300.7716 59.2072 14.99083965 32672 OPS-SAT 1 44878U 19092F 20198.75113034 .00000616 00000-0 35986-4 0 9994 2 44878 97.4692 21.5264 0012513 253.4182 106.5677 15.15523870 31976 TO-108 1 44881U 19093C 20198.77514084 -.00000005 00000-0 62041-5 0 9997 2 44881 97.9572 274.6278 0013934 305.3465 54.6448 14.81414600 31035 FloripaSat 1 1 44885U 19093G 20198.76094033 .00000126 00000-0 22603-4 0 9999 2 44885 97.9570 274.7846 0013667 317.1088 42.9054 14.82046748 31043 RS-44 1 44909U 19096E 20198.36454637 .00000019 00000-0 28555-4 0 9998 2 44909 082.5229 336.1000 0217905 158.6600 202.3763 12.79708295025885 SwampSat-2 1 45115U 19071E 20198.55794033 .00005466 00000-0 16559-3 0 9990 2 45115 051.6399 221.5458 0012236 163.9209 196.2164 15.35699634025593 HO-107 1 45119U 19071J 20198.59046396 .00000681 00000-0 32131-4 0 9999 2 45119 051.6423 222.4923 0012413 157.0908 203.0630 15.33643637025594 Phoenix 1 45258U 98067RB 20198.31221308 .00002963 00000-0 57825-4 0 9995 2 45258 051.6402 202.9357 0006690 088.0237 272.1519 15.51038484022955 AztechSat-1 1 45261U 98067RE 20198.70355974 .00005104 00000-0 90348-4 0 9996 2 45261 51.6396 200.3062 0008150 104.3034 255.8861 15.52149513 23042 QARMAN 1 45263U 98067RG 20198.55843816 .00004676 00000-0 85473-4 0 9994 2 45263 051.6399 201.5846 0007709 101.0010 259.1847 15.51449658023051 Quetzal 1 1 45598U 98067RL 20198.71264687 .00004359 00000-0 82638-4 0 9994 2 45598 51.6409 201.8633 0002438 184.7301 175.3665 15.50582272 12331 BY70-2 1 45857U 20042B 20198.80189653 .00000669 00000-0 10401-3 0 9997 2 45857 98.0123 271.7152 0010702 205.4165 154.6514 14.76209988 2015 /EX